Theta_e
344 344 344 342 342 343 344 342 341 341 341 341 339 338 335 330 326 322 322 323 323 325 325 322 326 328 327 326 327 326 325 323 322 321 320 319 318 316 315 317 322 321 320 320 320 319 318 317 316 315 315 314 314 314 314 315 314 314 313 313 312 310 308 307 306 306 305 304 303 303 303 303 303 303
344 344 344 343 342 343 343 344 343 339 339 341 341 340 338 336 330 327 322 323 327 324 325 325 323 326 326 327 326 326 325 322 322 322 321 320 319 316 314 314 316 316 316 316 318 319 319 318 316 315 315 314 313 314 315 315 315 314 314 313 311 308 307 307 307 306 305 303 302 302 302 302 303 303
344 343 343 343 342 343 342 343 344 343 342 341 341 339 339 338 335 331 329 321 329 326 322 324 327 326 326 326 325 326 326 323 322 322 322 321 319 317 315 314 314 314 314 314 316 318 319 318 316 315 315 314 314 315 315 316 315 314 313 313 310 308 308 307 307 307 306 304 303 302 302 302 303 303
344 343 342 342 341 342 342 343 343 342 342 342 340 340 339 337 337 335 331 326 325 331 326 326 325 327 326 325 324 324 325 322 320 322 323 323 319 317 317 313 313 313 312 312 313 315 317 317 316 315 314 314 314 315 316 315 314 314 313 312 310 309 309 308 308 308 307 305 303 302 302 302 302 302
342 342 342 341 342 343 342 341 342 342 341 341 341 340 338 336 336 333 330 324 323 326 330 327 325 326 326 324 325 323 323 321 321 321 323 323 320 319 317 316 312 312 310 309 309 310 311 313 315 315 315 314 315 316 315 313 312 314 314 311 310 309 310 310 308 309 307 306 304 303 302 302 301 301
341 342 341 341 342 344 342 342 341 341 340 340 339 337 337 336 334 335 332 328 323 323 327 326 328 324 326 322 325 323 322 320 321 321 323 325 321 320 318 316 314 310 310 309 309 309 309 309 310 313 314 312 310 310 309 308 309 312 314 310 307 308 309 310 310 309 308 307 306 304 303 302 301 300
339 340 341 341 342 344 342 342 341 340 340 339 338 336 337 336 335 334 334 330 325 324 324 328 324 323 324 323 323 325 325 322 322 321 322 323 322 322 320 317 316 309 309 308 308 308 308 307 307 308 309 308 307 307 307 306 306 308 309 306 305 306 307 308 309 309 309 308 307 305 303 302 300 300
338 338 340 341 342 342 341 341 341 341 340 338 337 336 336 337 337 335 334 334 329 326 324 325 324 324 323 324 325 325 325 323 322 322 322 323 322 322 322 319 317 312 308 308 308 308 307 307 306 307 307 307 306 306 306 305 305 305 306 305 304 304 304 305 305 309 309 308 308 306 303 302 301 301
338 338 339 341 341 342 340 340 340 340 339 339 337 335 336 335 337 337 335 334 333 328 325 325 326 324 323 324 323 324 323 323 322 322 321 321 321 321 322 322 320 312 308 308 308 308 307 306 306 306 306 306 306 305 305 304 304 304 304 303 303 303 303 303 304 305 306 305 305 306 304 303 302 302
339 338 339 341 342 341 340 339 340 340 340 339 337 336 335 335 335 335 334 334 332 327 326 326 324 324 322 321 322 323 323 321 320 320 321 321 321 320 319 320 321 315 311 311 309 308 307 306 306 306 306 305 305 305 304 304 304 304 303 303 302 302 302 302 302 303 303 304 304 304 305 303 303 302
340 340 340 341 342 342 342 341 340 341 341 340 337 336 336 336 334 333 333 332 330 326 325 325 325 324 324 322 320 322 323 322 321 318 318 317 319 320 319 317 319 314 312 311 310 310 309 308 307 306 306 306 305 305 304 304 304 304 303 302 301 301 301 301 301 301 301 301 301 301 302 303 305 305
340 341 341 341 342 343 343 342 342 342 341 340 338 338 337 336 334 333 332 331 329 326 324 323 324 323 323 321 322 323 322 320 320 320 318 315 315 317 319 318 316 313 312 310 310 310 309 309 308 307 307 307 306 306 305 305 305 304 303 302 301 300 300 301 301 300 301 301 300 300 300 300 301 303
340 340 341 341 342 343 341 334 335 336 337 341 337 337 337 335 334 333 332 330 327 326 324 323 325 323 322 322 320 319 318 318 317 319 319 316 317 317 317 318 318 314 312 311 310 309 309 308 307 307 306 307 307 307 306 306 306 304 301 300 300 300 300 300 300 300 300 300 300 300 299 299 299 299
339 339 340 341 340 336 334 329 322 321 324 330 337 339 337 335 334 333 332 329 326 324 323 323 324 323 321 321 321 320 320 320 320 319 318 315 316 316 316 316 317 315 313 311 309 310 311 309 308 307 306 307 308 307 306 306 305 303 300 299 299 300 299 299 299 299 299 300 300 299 299 298 298 297
338 339 339 340 340 335 333 330 317 316 316 318 322 325 328 331 336 334 332 332 326 323 323 324 323 323 322 322 323 322 322 321 320 319 318 317 316 315 313 311 313 316 314 312 309 309 311 310 307 307 307 307 307 307 307 305 304 303 300 298 298 299 298 298 298 298 298 298 299 298 298 297 297 296
338 338 339 339 341 340 339 339 327 320 315 314 315 315 316 317 319 321 332 333 327 323 322 322 323 323 322 323 323 322 322 321 320 320 319 317 316 315 314 313 311 315 316 312 310 309 311 311 309 308 309 309 308 308 306 304 303 302 301 299 298 298 297 297 297 297 297 297 297 297 296 296 295 295
338 338 338 338 340 341 334 337 337 332 326 314 314 315 315 316 314 311 310 310 325 328 324 323 323 324 324 323 323 323 323 323 320 319 318 317 317 317 315 314 314 315 317 314 311 309 311 311 309 309 310 310 310 309 306 305 303 302 301 299 298 297 297 296 296 296 296 296 296 296 295 294 294 294
339 338 338 337 338 339 339 339 340 336 333 328 326 327 328 331 325 314 312 311 306 317 327 326 324 326 327 325 326 326 324 322 321 319 318 319 318 317 316 317 316 317 318 314 312 310 312 312 310 308 310 312 311 310 307 304 303 302 301 300 298 297 296 296 295 295 295 295 295 295 294 293 293 293
340 339 339 338 338 338 340 340 338 338 336 333 331 331 332 333 333 331 329 325 322 324 329 328 328 329 329 329 329 328 326 324 324 323 321 321 320 320 320 318 318 318 318 317 314 309 312 314 310 310 311 311 310 310 307 304 303 302 302 301 299 298 296 295 295 295 295 295 294 294 293 293 292 292
341 340 340 339 339 339 340 329 317 326 338 335 333 333 333 333 333 334 328 319 317 325 329 330 331 331 332 313 321 319 323 326 325 325 323 323 322 320 317 316 317 315 320 318 315 312 312 314 311 310 312 311 310 310 310 305 303 302 301 301 300 298 297 296 295 295 295 294 294 294 293 293 292 292
341 340 340 340 340 340 340 325 310 313 324 337 334 334 333 333 333 333 333 314 308 308 310 312 313 314 304 302 304 301 303 311 323 324 322 320 322 319 316 316 316 316 318 318 317 314 311 314 313 311 311 311 309 310 310 309 303 302 301 301 300 299 298 296 295 295 295 294 294 294 293 293 292 293
341 340 332 337 341 340 340 317 306 308 325 338 336 334 333 332 331 331 332 329 321 304 304 304 304 303 303 304 299 301 303 306 309 325 320 321 322 319 318 315 316 317 317 316 319 313 312 314 315 312 311 309 309 311 311 310 306 302 301 300 300 299 298 297 296 295 295 294 294 294 293 293 293 292
341 341 333 328 332 337 332 311 306 306 324 339 338 336 334 332 331 332 333 330 328 324 321 320 318 315 312 313 315 318 308 306 311 321 325 324 322 319 319 318 316 315 316 317 320 314 313 313 315 314 308 305 309 311 311 310 307 305 304 302 301 300 299 298 297 296 295 295 294 294 294 293 293 291
340 341 342 329 312 313 315 307 305 305 313 336 338 337 334 332 331 333 332 330 330 327 325 325 324 323 324 324 322 322 323 321 320 319 324 326 324 322 320 319 317 315 316 316 319 315 315 315 314 317 315 307 304 308 310 310 308 305 304 303 301 301 300 299 297 296 295 295 295 294 294 293 293 290
340 340 341 342 320 309 307 303 304 306 308 318 338 336 334 333 331 326 331 326 320 328 326 324 324 324 323 323 324 324 324 324 324 322 320 324 326 324 321 319 318 317 319 316 312 318 314 316 314 315 315 314 313 309 309 310 309 305 304 304 302 302 300 299 298 297 296 295 295 294 294 294 294 292
339 340 341 341 326 309 306 301 303 304 306 308 333 335 318 315 311 329 331 329 325 327 327 326 323 323 323 322 322 323 324 324 324 325 324 323 325 327 325 323 319 317 318 319 307 319 316 315 316 314 314 313 313 313 308 308 310 307 306 304 304 303 301 300 299 298 297 295 295 294 294 294 294 293
338 340 340 339 320 308 304 302 301 303 304 307 326 315 309 309 305 315 331 329 327 326 326 326 324 323 323 322 321 321 322 324 325 325 325 325 324 324 324 325 326 324 323 319 314 319 319 317 317 315 314 314 312 311 311 309 307 307 306 304 304 304 303 301 299 298 298 297 296 295 294 294 294 293
340 340 340 335 310 306 304 302 300 301 303 313 311 309 305 304 306 326 328 327 329 324 323 323 324 324 324 324 323 322 323 323 325 326 326 325 324 324 324 324 322 323 324 324 318 318 320 318 317 317 317 315 312 311 310 313 308 306 305 306 305 305 304 301 300 300 299 299 297 296 294 293 293 293
332 325 320 317 305 304 304 303 299 299 302 304 306 305 301 309 320 324 328 328 329 327 325 324 325 325 325 325 325 326 325 324 325 324 325 325 325 325 324 324 323 323 323 324 322 318 319 319 318 317 317 316 314 313 312 311 309 306 306 305 303 305 305 303 302 300 300 299 298 297 295 294 293 294
296 299 313 306 303 302 304 308 310 312 310 302 303 304 306 318 323 325 326 328 327 327 327 326 324 325 326 326 327 327 326 325 324 323 323 323 322 323 322 321 322 323 324 324 325 323 319 319 319 318 317 316 315 314 313 312 310 309 305 305 307 306 306 305 303 302 301 300 300 299 298 297 296 294
322 317 311 311 305 307 304 307 308 311 308 306 306 310 314 319 324 326 327 328 328 326 327 326 327 328 328 329 327 325 325 324 325 325 321 322 322 321 322 320 319 320 322 324 325 325 324 320 320 319 317 316 315 315 315 314 312 311 306 307 307 304 306 307 305 304 303 303 302 301 300 298 297 296
328 318 306 310 314 311 311 316 317 319 320 315 312 314 315 316 317 318 317 318 326 328 329 329 329 327 328 327 326 325 324 325 325 324 321 321 321 320 320 319 318 319 320 322 323 323 316 323 320 320 319 317 315 316 315 314 313 313 311 307 308 309 309 308 306 305 306 304 302 301 301 300 298 297
324 322 323 321 320 320 316 317 321 321 322 320 318 318 317 317 318 319 319 320 322 324 324 326 326 326 327 326 324 323 323 323 324 324 323 322 321 320 320 318 318 317 317 317 319 321 323 323 322 321 320 319 319 317 315 313 313 313 313 310 307 308 309 309 307 306 306 304 302 302 301 302 300 299
319 320 321 319 318 321 320 319 320 322 323 323 322 321 312 319 319 318 318 319 321 322 321 323 323 324 324 326 326 324 322 322 322 323 315 322 322 320 319 318 318 318 316 317 317 318 319 321 322 321 320 318 319 318 316 314 313 313 313 311 307 307 309 309 309 308 307 305 303 301 301 301 302 301
314 314 316 320 323 324 326 325 324 323 324 314 325 325 324 322 320 313 318 318 317 313 317 318 321 322 322 323 324 323 322 322 322 323 319 320 321 320 318 318 318 317 317 316 317 318 318 317 318 317 317 316 315 316 312 317 315 314 311 311 311 308 308 309 308 308 307 306 305 302 301 302 302 303
310 319 323 325 328 329 328 327 328 328 328 328 328 327 325 325 325 320 320 316 320 317 318 317 313 318 320 322 322 321 320 311 318 319 320 319 318 317 318 318 317 317 317 317 316 318 317 316 315 314 311 311 309 304 308 309 310 315 312 308 308 308 308 307 307 308 308 307 306 304 298 300 302 303
311 321 326 327 327 327 327 328 328 327 327 327 327 327 326 324 325 323 322 319 321 317 319 317 316 315 316 315 315 309 312 313 316 317 317 317 317 316 315 311 310 314 316 317 317 313 316 314 314 313 311 307 303 302 305 308 305 306 315 310 306 307 309 308 306 306 308 308 306 305 302 301 302 304
320 324 326 326 326 327 325 326 327 325 326 325 325 326 326 326 327 327 328 326 321 315 316 319 313 311 317 313 316 316 318 316 314 314 312 315 316 315 316 315 315 315 315 315 314 314 315 314 312 312 311 306 303 302 302 297 301 305 306 313 308 306 304 304 299 300 304 307 306 306 304 301 301 303
325 323 323 325 325 325 326 325 325 326 327 326 325 326 326 327 327 326 325 325 325 323 321 320 318 314 316 319 316 313 312 311 310 310 311 314 315 315 313 314 312 315 314 313 313 312 313 312 312 311 311 310 305 305 307 299 299 300 303 305 311 308 304 302 297 301 303 303 303 303 301 300 298 294
322 321 322 323 324 326 326 328 328 327 327 327 327 328 326 325 324 325 324 317 320 323 323 320 320 317 318 318 314 316 318 318 316 314 312 312 312 313 314 311 312 311 309 309 309 311 311 312 312 312 312 312 313 310 299 296 295 296 299 304 303 309 305 301 297 298 295 302 303 298 294 298 296 297
322 323 323 323 325 326 326 326 327 326 327 328 328 321 326 325 325 325 324 323 315 318 315 319 320 318 317 318 318 312 309 308 311 314 312 310 305 305 304 300 304 306 306 303 308 310 311 313 311 301 309 306 304 302 297 295 296 295 296 295 294 294 297 301 304 301 295 300 301 296 295 295 293 293
324 323 324 326 326 326 326 326 327 325 325 324 325 325 324 324 322 312 315 307 322 323 316 315 313 311 309 308 311 307 308 308 306 307 304 306 306 302 299 297 302 303 303 303 305 308 308 306 303 305 306 302 297 299 300 298 297 293 294 292 293 294 294 295 299 299 303 301 297 293 291 292 292 291
320 324 323 322 323 324 324 323 323 322 322 322 321 323 321 321 321 316 313 314 313 310 306 303 305 304 302 302 303 305 306 305 304 303 304 303 302 303 301 301 302 305 306 305 303 304 300 306 306 306 303 299 298 299 300 297 294 293 293 292 293 292 292 294 293 293 293 294 295 298 297 293 291 290
323 322 323 324 324 324 324 323 322 321 322 321 320 320 317 313 311 313 313 309 307 305 305 305 305 305 305 306 304 303 305 304 303 302 301 300 299 300 302 300 299 301 301 298 295 296 297 299 302 302 299 299 297 297 297 291 292 292 293 292 291 292 292 291 292 292 292 292 291 291 292 293 292 292
317 318 318 318 319 320 319 319 317 318 320 320 319 317 311 315 306 309 314 313 306 306 304 303 305 305 304 303 303 304 301 299 299 298 299 299 299 297 296 299 299 297 296 293 295 294 293 294 295 294 297 297 294 296 294 292 292 290 290 291 292 293 292 291 292 292 292 290 289 289 290 290 290 289
Wind_Speed
6 6 7 7 6 5 5 6 6 5 3 4 5 5 6 6 4 5 6 8 7 9 9 7 8 9 8 8 8 8 7 10 13 9 8 9 9 14 16 15 15 16 15 12 16 16 17 16 15 14 14 14 13 13 13 12 12 12 12 11 10 10 9 8 8 8 8 8 8 9 9 8 9 9
6 7 7 6 6 6 6 7 8 7 5 5 5 5 5 6 6 4 4 4 9 6 8 7 8 9 9 8 8 9 8 13 15 10 9 9 10 16 16 15 14 16 15 13 15 16 18 18 17 16 15 15 14 14 14 13 13 13 13 12 11 11 10 9 9 9 8 8 8 8 8 7 8 8
7 8 8 8 7 7 7 7 8 8 8 7 6 6 6 5 4 3 2 2 1 9 9 8 9 10 10 9 8 8 8 12 16 12 9 10 13 17 15 16 16 17 16 14 15 17 18 18 18 17 16 16 16 15 15 14 13 13 13 12 12 12 11 10 10 9 9 8 8 7 7 7 6 6
8 8 9 9 8 8 7 7 8 8 8 7 6 6 5 5 4 1 1 3 2 3 7 6 10 12 10 10 10 9 8 11 18 10 9 11 15 13 11 16 16 17 15 15 17 18 17 17 18 18 17 17 17 16 15 15 14 12 11 12 12 11 11 11 10 10 9 8 8 8 7 6 6 5
8 9 9 9 9 8 8 7 7 8 8 7 7 6 6 5 4 4 2 3 2 1 3 6 9 11 11 9 11 10 8 9 11 12 9 8 10 10 10 10 15 16 15 16 18 18 17 16 17 18 18 17 17 17 15 13 12 12 12 14 13 12 11 10 12 11 10 10 9 8 7 7 6 5
9 8 10 10 10 10 9 8 9 9 8 7 6 5 5 5 6 5 4 5 2 4 1 3 7 10 12 9 11 10 9 9 10 12 9 6 10 10 9 9 10 16 16 18 19 18 18 17 16 16 17 15 15 14 14 13 13 13 13 14 14 13 12 10 11 12 12 11 10 9 8 8 6 5
10 10 10 11 10 8 10 10 9 8 9 8 8 7 6 5 6 6 6 4 4 6 5 4 5 9 9 9 11 11 9 10 11 12 11 8 8 8 9 9 8 15 17 19 19 19 18 17 17 16 16 15 15 14 14 13 14 14 14 14 14 13 13 11 11 13 13 12 11 10 10 9 8 7
11 11 11 11 10 9 11 10 10 8 9 9 9 8 7 6 5 7 7 5 3 3 7 5 5 6 9 7 11 8 9 10 10 10 10 8 9 9 9 9 8 13 18 19 19 19 19 18 18 17 16 15 15 15 14 15 15 15 15 14 14 14 14 12 11 12 14 13 12 12 11 11 11 9
12 11 11 11 11 10 10 10 9 9 9 8 8 8 8 7 6 5 6 6 5 4 5 6 4 6 6 5 9 11 11 8 8 8 9 9 10 9 9 8 9 15 21 20 20 19 19 19 19 18 17 16 16 16 15 16 16 16 16 15 15 15 14 14 12 12 12 12 12 12 13 12 12 12
11 11 11 11 11 11 11 11 9 9 11 8 9 9 8 8 7 7 7 6 6 5 5 6 6 6 8 7 6 11 11 10 9 8 10 7 9 9 9 9 8 9 11 10 12 16 17 19 20 19 18 17 17 17 16 16 17 17 16 16 16 16 15 15 14 13 12 12 13 12 12 11 12 13
11 12 12 11 12 12 12 11 10 10 10 9 8 9 9 8 8 8 8 8 8 7 6 4 7 7 7 8 7 10 11 11 10 11 10 9 8 8 10 9 7 8 12 17 21 17 16 17 16 18 19 19 19 18 18 17 18 17 17 17 17 17 16 16 15 15 14 13 14 13 13 13 13 13
12 12 12 11 12 13 12 11 9 11 10 8 9 8 8 8 8 8 8 9 9 8 7 6 6 6 7 6 6 5 11 10 9 11 11 12 9 9 9 10 8 8 10 10 10 13 15 15 17 18 18 19 19 19 18 19 18 19 17 17 18 18 17 17 16 16 16 15 15 15 14 14 14 14
13 12 12 12 12 13 14 15 13 13 12 10 11 10 9 9 8 8 8 7 8 8 8 7 5 7 7 8 9 8 12 14 13 10 9 9 9 9 8 9 7 10 10 9 11 11 12 11 11 10 10 11 16 17 19 16 21 20 18 19 19 18 18 18 17 17 17 16 16 16 15 15 15 15
13 13 12 12 17 17 18 18 17 17 18 15 13 11 11 11 10 10 9 9 8 8 9 9 8 9 10 10 12 10 10 9 8 10 10 10 9 8 8 8 6 9 11 11 11 10 10 11 10 11 11 10 13 11 12 12 14 18 20 20 19 20 19 19 18 18 18 18 17 17 17 16 15 15
13 12 13 11 13 14 13 16 20 19 19 18 20 19 18 15 13 12 12 11 9 10 9 9 9 9 10 10 10 11 8 11 12 11 10 9 9 10 10 11 4 9 13 11 11 10 11 11 12 12 12 12 12 12 13 18 20 20 21 21 21 20 20 20 20 19 19 19 19 18 18 17 17 16
13 13 12 11 10 12 14 10 12 16 19 20 20 21 21 20 19 16 13 12 9 10 9 9 11 10 9 9 10 10 9 9 11 11 11 11 11 10 11 10 10 7 11 11 10 10 9 11 12 11 12 12 12 14 17 21 22 22 22 22 22 21 21 21 21 21 20 20 20 19 19 18 18 17
13 13 12 11 10 10 17 13 10 11 13 16 21 20 20 21 21 19 18 13 8 8 10 10 10 11 9 10 10 11 11 8 10 11 11 11 11 10 11 11 9 9 13 9 9 10 10 12 12 12 11 12 12 13 18 22 23 24 23 23 22 22 22 22 22 21 21 21 21 20 20 19 19 18
15 14 13 13 11 9 8 11 12 11 12 12 12 14 14 14 19 21 24 24 19 14 12 12 12 9 10 11 9 10 10 12 11 11 12 11 11 12 13 10 7 8 13 13 9 8 9 12 11 13 11 11 12 12 17 24 24 25 25 24 24 24 23 23 22 23 22 22 21 21 20 20 19 19
15 14 14 14 13 11 9 8 13 12 12 12 12 13 13 13 14 15 15 15 11 10 11 12 12 8 10 11 9 9 14 15 13 11 12 11 10 10 8 5 6 7 14 13 10 11 9 10 12 13 11 10 12 12 16 23 25 26 26 26 25 25 24 24 24 23 23 23 22 22 21 20 20 20
13 13 13 13 13 12 12 12 18 16 12 12 13 14 13 12 11 12 13 10 8 8 7 7 8 8 6 6 3 1 3 10 11 8 7 8 8 7 7 10 5 8 9 15 13 9 9 9 12 11 9 9 11 11 11 20 26 26 27 27 27 26 25 25 25 24 24 23 23 22 22 21 21 21
14 13 13 13 13 14 15 17 19 19 17 12 14 14 14 11 9 11 8 11 15 14 12 11 11 9 7 6 2 0 2 4 7 8 8 11 9 8 10 9 9 10 7 11 14 10 9 8 10 7 9 11 12 11 12 12 22 26 27 27 28 27 26 26 26 25 25 24 24 23 23 22 21 21
11 13 18 16 14 14 15 17 19 19 18 13 14 14 13 12 12 12 9 5 8 12 12 12 10 9 10 7 6 5 5 4 6 12 13 11 9 11 10 10 9 7 7 9 10 9 11 6 8 8 6 8 9 11 10 11 14 24 24 28 27 27 27 27 27 26 26 25 24 24 23 22 21 15
10 11 13 19 17 15 16 18 19 21 19 14 13 14 12 13 15 15 10 10 10 7 7 8 8 9 11 9 8 7 9 10 7 8 10 10 11 12 11 10 7 10 10 8 12 12 9 8 8 8 5 8 8 10 10 10 10 13 13 15 20 26 27 27 27 27 27 25 25 24 23 23 19 10
11 11 11 14 18 18 17 17 21 22 22 16 13 11 12 13 17 10 8 11 10 10 12 12 12 14 12 11 8 8 8 7 6 7 8 9 11 12 11 10 12 11 7 6 11 12 6 9 9 10 10 7 6 7 10 10 10 12 14 13 12 21 25 26 23 28 27 26 26 25 24 23 19 11
12 12 12 12 18 21 17 18 22 23 24 21 14 13 13 16 9 7 9 10 13 11 11 11 10 10 10 10 10 10 10 9 8 8 9 9 9 11 11 11 11 11 9 8 18 11 10 9 11 9 10 9 6 5 8 11 9 11 13 14 14 14 13 15 13 15 21 26 26 25 24 24 24 18
12 13 13 12 18 23 20 19 21 23 23 21 12 14 18 13 13 11 8 7 9 10 8 9 9 10 10 10 11 11 11 11 11 10 9 10 10 9 9 10 10 10 10 8 23 15 11 9 11 10 9 9 10 8 5 9 10 11 12 13 14 14 14 15 13 13 12 13 14 18 20 25 23 25
14 13 13 14 18 22 21 20 22 22 22 17 14 19 17 16 17 12 8 8 10 9 9 8 9 10 10 10 11 11 12 11 11 11 11 10 11 10 9 8 7 7 4 4 15 15 13 10 9 12 11 9 10 8 10 7 6 6 8 11 12 11 11 12 14 14 13 12 13 21 23 23 23 24
10 9 10 11 16 21 22 21 19 19 19 16 21 18 14 15 15 10 9 9 9 10 9 10 10 10 10 9 9 9 9 9 10 11 11 11 12 12 11 11 11 11 10 5 8 12 12 12 9 11 13 11 11 12 10 9 6 10 12 9 10 11 10 12 12 12 11 11 10 10 10 11 12 14
8 11 10 13 16 20 22 22 18 16 20 23 21 18 12 10 7 9 10 10 9 9 11 11 11 10 10 10 10 8 8 9 9 10 10 12 13 14 14 14 13 13 11 10 8 10 11 11 10 7 9 10 11 10 10 9 7 9 11 11 9 11 11 12 12 12 12 12 12 12 14 15 14 14
11 14 12 15 18 18 18 15 13 12 14 19 19 19 17 10 9 10 9 9 10 11 11 10 10 10 7 7 8 9 9 10 11 10 9 9 10 10 11 11 13 13 13 13 14 11 11 11 11 9 9 10 11 11 10 8 8 7 11 13 12 8 11 11 12 11 12 12 13 13 13 13 14 14
7 6 5 4 8 10 18 20 18 15 13 9 8 8 10 10 11 10 10 10 10 9 9 10 9 8 8 7 7 9 9 10 10 11 11 11 12 12 11 12 12 12 12 13 13 14 13 12 11 11 12 10 8 11 10 9 10 7 10 12 11 11 10 11 10 12 12 12 12 11 10 10 11 12
5 5 9 12 11 8 5 3 3 0 3 6 7 7 7 9 9 10 10 9 8 9 10 9 7 8 7 8 10 9 10 11 10 10 11 12 11 10 11 11 14 12 11 11 12 14 15 13 13 12 14 13 13 11 7 9 11 10 7 12 12 11 9 14 13 14 14 12 10 11 11 11 12 12
2 4 7 9 8 8 8 5 1 3 4 4 6 7 7 8 8 8 8 10 12 12 9 9 9 9 8 7 6 7 8 10 10 10 10 11 11 10 11 14 13 12 13 12 12 11 12 13 14 14 12 12 12 10 8 10 12 10 12 7 11 11 9 10 12 13 12 10 11 10 10 10 10 12
6 3 3 2 4 3 4 6 7 7 7 6 7 8 9 9 8 9 10 10 11 10 9 10 9 10 9 10 9 9 10 9 9 10 11 11 11 12 13 13 13 12 12 12 11 11 10 11 10 12 13 12 10 12 12 13 12 10 9 7 10 11 10 11 12 13 13 13 13 11 10 10 10 10
8 5 7 7 7 9 9 10 9 8 8 6 7 8 8 9 10 10 10 11 9 8 8 10 10 10 11 12 11 11 11 12 11 7 7 10 11 11 11 12 12 12 13 12 12 11 9 8 9 9 10 9 9 10 13 14 12 10 5 7 8 8 9 8 9 10 12 10 9 10 10 9 9 9
10 11 10 10 11 10 9 9 8 8 8 8 9 8 8 9 9 10 10 8 7 8 9 10 9 10 11 11 12 12 12 8 4 6 11 10 10 10 11 13 13 13 11 11 11 10 8 7 8 10 10 11 10 9 14 16 11 9 9 3 0 4 5 7 10 10 11 11 11 11 9 10 9 9
10 10 11 11 11 10 10 9 9 9 8 8 8 8 8 8 8 8 8 8 9 9 10 9 10 10 10 9 10 8 11 10 10 10 11 9 7 9 10 10 11 12 12 12 9 5 8 10 8 9 10 9 9 14 17 1 8 10 8 6 4 4 7 5 7 10 11 12 11 11 10 9 8 9
12 11 11 12 11 11 10 10 9 9 9 9 9 9 9 9 9 9 8 8 9 9 9 9 9 10 10 10 11 11 11 10 8 9 10 10 12 11 9 13 13 12 12 10 7 8 9 8 8 12 11 13 14 13 14 2 4 8 14 12 11 7 5 4 4 8 7 7 11 9 8 8 8 7
9 9 9 10 9 9 9 9 9 8 9 9 10 10 10 9 9 9 9 10 9 9 9 9 9 9 10 11 11 9 10 9 8 10 10 10 10 10 11 13 12 11 10 10 7 7 8 10 12 12 13 14 16 17 13 6 8 5 8 18 12 8 7 7 6 6 8 9 6 4 3 3 6 6
4 4 6 7 8 8 7 7 8 8 8 9 9 9 9 9 9 9 9 9 9 8 8 9 11 10 10 10 9 10 11 13 13 12 12 13 13 13 13 13 12 11 10 9 8 9 10 11 12 13 14 16 10 3 4 5 2 0 2 5 10 14 11 9 8 9 5 7 8 8 6 6 7 3
4 5 6 7 6 6 6 6 6 7 7 7 8 8 8 7 7 8 8 8 7 8 7 7 8 9 10 10 10 9 9 9 10 10 11 11 10 12 15 11 10 10 11 10 11 10 12 12 12 12 7 3 5 8 4 2 4 3 4 2 7 7 9 9 10 11 7 6 9 10 9 9 7 5
2 2 2 2 3 4 4 4 5 5 5 6 6 6 7 7 7 8 8 6 6 7 9 7 6 6 6 6 6 7 9 10 10 9 7 8 9 9 9 7 9 8 9 11 13 13 2 3 4 7 7 7 6 6 11 10 8 5 4 3 2 5 9 10 11 10 12 12 10 5 4 4 4 5
8 7 7 6 5 5 5 5 5 5 4 4 4 6 5 5 4 5 4 4 3 3 4 5 5 5 5 5 5 6 7 7 7 8 9 7 8 8 8 8 10 10 11 11 6 2 4 5 5 7 8 7 7 9 11 8 5 6 5 5 5 3 4 8 14 13 10 5 3 7 9 8 6 6
9 9 7 4 3 3 3 3 4 4 3 3 3 3 2 2 2 2 1 2 3 5 5 5 5 5 6 6 6 6 6 6 6 8 8 8 7 8 8 7 7 10 9 7 3 3 3 5 7 9 8 9 7 7 8 6 7 6 7 5 4 5 5 4 5 8 8 10 12 13 11 10 8 11
9 8 7 6 6 7 7 8 9 10 9 8 7 6 5 4 3 3 4 3 4 4 5 5 5 5 6 6 6 7 6 6 5 5 6 6 5 5 5 7 8 7 6 3 4 5 3 4 3 4 6 8 7 10 8 9 8 8 7 9 10 9 7 5 6 7 6 3 5 9 14 14 15 14
Wind_Direction
199 197 192 190 190 190 173 161 171 176 195 203 163 173 186 188 207 176 209 215 206 192 169 175 182 179 178 174 172 183 175 168 171 178 173 176 181 192 191 193 188 188 192 200 180 182 177 173 176 183 185 188 190 187 185 182 177 171 170 163 154 146 145 138 130 124 114 104 97 91 86 78 67 60
197 199 194 189 192 192 186 173 166 170 192 201 192 193 209 208 209 215 210 212 196 157 168 176 169 176 174 172 173 174 188 164 175 181 177 180 184 191 191 192 188 185 192 190 177 182 182 179 182 187 187 191 195 192 189 187 182 180 178 170 157 154 157 154 146 137 130 123 114 106 100 90 78 65
195 200 202 198 199 190 190 180 170 173 189 195 199 198 212 200 210 211 225 233 42 146 173 180 175 172 168 170 169 177 184 169 179 185 182 182 184 187 193 192 190 186 191 185 176 176 184 184 187 191 191 192 197 196 194 192 189 186 183 169 159 164 169 165 160 152 145 140 132 124 116 107 92 76
198 203 203 203 201 194 187 182 173 179 189 195 194 197 195 202 199 130 214 222 171 187 170 161 162 165 163 168 168 178 177 170 183 192 192 183 180 185 193 196 191 189 185 183 176 176 183 187 189 193 193 194 198 198 197 195 191 188 181 159 163 172 179 176 171 168 161 155 147 141 134 124 112 93
202 207 212 205 202 193 189 186 177 181 189 190 196 188 181 176 158 149 201 225 175 343 149 163 153 166 159 171 173 175 170 171 185 197 199 190 177 184 190 192 194 189 184 182 178 178 181 186 191 194 195 196 199 200 197 194 185 186 176 166 169 180 188 187 181 177 173 168 166 159 153 138 128 115
204 202 209 212 202 196 194 189 188 185 186 182 176 180 171 166 162 163 185 228 181 182 161 170 135 162 164 169 172 175 164 178 181 195 202 180 179 185 186 185 193 190 186 182 181 181 183 186 192 196 197 194 197 201 191 189 178 180 172 173 177 183 193 196 194 188 184 182 176 173 166 158 146 141
202 202 205 210 205 192 195 193 195 180 184 182 175 179 165 175 169 173 197 218 200 160 204 183 158 159 173 172 172 175 171 175 180 191 201 186 182 183 186 186 188 190 188 186 184 184 185 187 192 197 197 195 192 202 187 183 176 176 177 178 182 185 193 199 202 197 191 189 185 180 175 171 168 165
206 203 203 205 207 199 194 195 192 192 184 182 174 173 165 179 180 176 188 220 225 174 172 215 176 167 170 169 170 166 163 169 182 192 201 187 183 186 190 189 187 188 189 187 187 188 188 189 193 197 198 196 193 197 190 181 179 178 181 184 187 189 192 197 200 205 197 193 192 187 184 183 183 184
206 204 205 202 205 208 199 199 196 189 191 183 169 167 166 175 182 173 176 194 216 212 180 188 196 160 179 182 163 163 160 171 181 196 206 193 183 187 192 195 187 179 188 189 190 191 191 193 194 197 199 198 195 195 190 185 182 183 184 187 190 191 192 194 195 201 200 191 192 192 191 192 196 195
200 206 204 205 203 208 206 201 195 186 189 190 173 170 170 175 179 176 173 192 207 208 213 175 181 165 174 192 173 172 164 166 176 192 208 205 190 193 198 200 196 174 183 192 194 194 195 196 196 198 199 199 197 196 192 190 188 188 189 189 193 193 194 195 194 196 199 194 190 194 194 192 203 207
202 202 206 206 204 207 208 202 193 183 184 191 179 174 174 174 180 184 188 194 198 193 205 202 177 174 187 181 181 174 170 173 179 182 191 213 193 197 199 204 201 171 185 192 189 189 193 196 198 200 200 199 199 198 195 194 193 193 193 193 194 196 197 197 197 196 199 198 194 196 198 195 199 211
203 203 205 209 206 207 205 204 196 183 186 177 177 175 169 172 181 191 198 195 194 184 192 206 184 180 183 181 190 160 168 177 193 191 186 196 195 199 201 205 192 178 178 189 198 201 199 200 201 203 204 202 201 199 198 198 197 197 197 196 197 198 199 199 199 200 200 199 197 197 200 200 200 206
202 203 203 206 210 204 204 199 194 190 185 176 176 173 171 177 183 193 206 207 195 183 183 203 191 185 189 189 187 184 184 190 193 181 184 194 196 192 201 213 185 171 174 188 188 195 192 194 197 200 206 211 208 207 202 204 203 201 200 199 199 200 200 201 201 201 201 200 199 199 201 204 204 206
202 204 202 204 207 205 200 199 195 190 186 175 172 171 176 178 185 191 201 206 202 190 187 194 197 194 200 195 194 199 195 188 176 186 186 192 192 190 208 210 193 173 170 176 192 198 191 192 197 199 206 206 202 209 206 208 204 205 202 201 201 201 201 202 203 203 202 201 200 201 203 205 207 209
201 203 202 200 204 210 206 199 195 190 187 177 171 175 178 180 183 188 198 212 201 194 193 189 200 206 203 200 195 203 191 179 189 190 187 191 188 196 201 209 181 185 171 183 184 197 190 188 199 201 206 202 202 207 210 209 205 205 204 204 203 202 203 203 204 204 205 203 202 203 205 207 209 210
196 199 199 200 201 206 209 199 196 197 189 183 179 178 178 181 189 192 195 202 203 195 192 194 201 205 205 197 198 199 198 185 188 189 189 193 196 199 209 206 203 184 178 175 185 199 185 191 202 204 206 203 204 207 209 205 208 206 205 206 205 205 204 204 204 205 206 205 205 205 206 208 209 211
192 194 197 200 206 205 200 200 192 194 200 194 185 181 182 184 188 199 210 210 199 192 195 200 203 202 193 200 204 199 199 189 188 190 193 199 199 208 214 212 206 164 180 175 187 197 192 187 202 212 207 200 203 207 209 208 207 208 207 207 207 206 205 205 205 206 206 207 207 207 208 208 209 211
193 192 192 197 203 209 192 200 197 193 192 193 193 191 192 194 195 199 207 217 224 215 196 195 204 196 192 205 203 199 191 198 203 187 199 194 202 209 219 214 203 163 176 184 182 206 196 190 198 214 212 198 200 206 203 205 206 208 209 208 208 208 207 206 206 207 207 207 207 208 208 208 209 211
195 190 190 193 200 205 205 196 197 191 192 189 193 198 203 204 202 206 211 213 207 203 198 195 197 194 195 205 211 202 194 202 204 198 197 194 204 214 224 232 197 172 181 183 176 214 202 181 198 213 206 200 206 205 201 199 204 206 209 210 209 208 208 207 207 207 208 208 208 208 208 208 209 211
195 193 190 191 196 198 207 203 193 190 184 185 192 199 206 210 213 217 220 209 202 207 207 200 195 206 174 139 145 141 247 200 190 180 172 189 205 203 207 221 202 212 185 187 192 208 204 184 192 210 202 198 212 204 207 198 201 205 208 209 209 209 208 209 209 209 208 208 208 208 208 208 209 211
196 194 192 193 195 198 204 201 187 184 174 185 194 201 205 209 215 229 216 183 194 207 213 211 211 205 178 188 156 2 36 306 195 161 174 201 194 208 220 222 217 222 191 199 200 202 212 198 197 193 188 200 209 208 207 199 200 203 206 208 208 208 209 209 210 210 209 209 209 209 209 208 209 211
201 198 195 197 197 201 205 195 180 180 176 188 196 201 204 204 214 226 212 193 212 204 210 219 219 223 228 222 241 228 242 261 261 187 201 193 187 215 213 220 216 227 202 205 184 197 218 182 195 203 197 200 215 215 211 198 196 202 206 207 206 208 208 209 210 210 210 210 209 209 208 209 208 210
199 200 198 200 202 203 206 187 181 182 183 194 193 197 198 207 218 223 201 206 208 195 207 225 225 246 241 230 220 238 221 224 233 250 217 183 197 212 213 214 213 226 227 201 174 199 214 191 208 182 168 214 222 210 212 202 186 195 202 208 209 209 208 209 210 210 211 210 210 209 208 209 203 205
201 201 199 201 206 206 199 182 184 184 189 194 197 188 197 206 221 209 193 212 208 204 207 215 214 222 226 223 222 227 229 215 213 219 240 214 199 206 212 210 213 225 219 168 182 202 210 198 214 205 205 194 221 205 204 213 187 192 194 199 201 212 211 210 211 212 211 211 210 209 208 208 198 201
199 200 201 201 203 205 191 180 183 184 192 195 190 190 202 212 205 152 206 199 196 205 207 213 214 223 221 224 223 224 224 223 211 211 221 240 221 208 210 215 216 231 223 181 183 194 208 197 213 204 224 223 221 179 202 207 193 191 195 195 199 206 198 209 211 215 217 214 212 209 209 207 200 199
204 201 202 203 196 198 188 181 181 187 190 192 185 199 207 189 156 187 197 189 195 205 204 202 211 212 214 215 220 219 220 220 215 211 214 222 237 231 219 216 218 228 227 190 180 196 200 216 205 205 215 217 234 219 198 207 203 197 194 198 200 198 189 197 201 211 208 209 214 212 212 209 204 204
206 202 202 204 187 186 182 181 185 185 187 183 200 205 199 176 173 179 198 189 191 204 205 199 204 208 208 210 213 214 216 214 210 211 211 214 221 236 244 238 234 237 236 170 190 196 202 214 198 202 211 212 223 219 225 214 210 182 200 198 203 199 193 190 198 204 205 205 212 211 212 212 206 205
218 212 206 201 178 181 180 183 180 180 178 193 206 210 192 180 173 186 201 208 199 193 203 212 213 211 210 210 213 212 211 213 210 213 210 210 213 223 230 236 245 242 248 226 190 215 210 215 208 206 204 207 211 217 222 221 184 174 194 200 198 199 188 192 202 203 204 204 205 203 202 212 212 209
284 253 218 205 180 184 184 179 171 173 187 197 202 198 171 166 175 195 208 207 209 207 208 212 216 218 210 207 208 200 198 207 212 212 212 209 213 217 222 228 231 235 235 241 218 207 220 226 227 210 211 215 219 220 217 219 188 186 184 174 200 204 197 194 197 198 199 200 201 197 201 204 203 199
295 290 231 194 186 180 176 169 174 183 194 203 199 194 190 193 198 201 204 212 210 218 220 219 219 223 217 212 200 195 196 202 210 206 206 201 211 211 217 225 233 234 233 230 232 222 217 224 226 221 217 220 218 225 218 217 229 182 180 190 198 187 201 188 196 198 196 200 205 202 208 202 205 190
261 319 329 215 186 174 175 176 180 189 188 181 197 205 205 210 213 214 215 216 223 228 233 230 231 226 221 219 210 205 202 209 211 202 202 202 206 203 209 213 225 228 228 227 224 225 220 216 217 213 226 228 222 225 225 221 233 210 185 195 178 192 187 191 193 201 198 202 205 209 203 197 204 201
318 44 39 40 29 29 60 77 48 96 171 191 192 196 199 210 218 226 232 241 243 241 238 245 243 243 220 213 214 213 214 218 213 200 202 208 208 198 199 210 223 220 221 219 221 219 219 220 215 215 221 223 227 228 222 231 234 229 200 192 200 204 176 186 189 200 198 193 198 206 204 195 199 196
59 47 40 11 18 23 20 5 103 173 202 194 201 205 211 212 213 214 210 220 227 230 236 238 240 242 246 236 224 223 230 227 224 211 207 206 211 206 201 213 219 214 219 221 218 218 216 221 224 225 226 228 229 228 227 240 239 228 231 190 191 201 191 190 192 195 186 183 200 202 204 201 197 197
74 59 38 355 297 222 168 211 216 198 200 201 198 203 206 205 208 210 215 219 225 224 222 230 235 241 242 248 238 234 230 233 227 217 209 213 209 210 211 217 222 220 219 224 219 219 217 218 219 224 231 232 226 220 221 234 240 235 230 171 182 198 199 189 192 189 187 190 190 194 203 203 198 194
153 163 188 180 212 201 194 203 210 202 196 202 209 211 199 205 208 203 210 212 214 212 219 224 231 230 232 239 244 245 243 238 235 237 231 223 215 213 217 221 219 217 219 224 225 221 214 211 213 221 225 235 244 249 230 226 231 233 221 216 198 192 194 187 181 184 186 192 188 197 204 204 199 192
172 186 180 198 201 199 204 213 212 204 202 204 212 218 220 213 206 202 214 203 190 201 210 217 220 227 232 235 236 239 244 251 230 208 231 221 218 222 224 227 228 227 223 220 224 217 198 200 199 209 213 220 221 242 248 226 196 222 219 242 274 209 198 174 180 179 175 188 188 189 192 196 195 185
181 191 189 194 199 199 205 206 213 217 211 209 211 215 218 224 223 213 211 188 205 206 211 205 214 218 226 233 243 248 249 239 231 223 229 232 237 235 230 236 237 235 232 229 213 169 151 197 186 190 210 220 219 231 244 176 218 230 197 189 213 194 193 187 171 185 191 183 189 190 188 187 187 179
187 186 196 202 201 201 202 207 206 207 208 209 213 217 219 222 220 222 219 207 209 209 210 210 213 207 218 217 225 235 241 237 235 234 234 232 233 232 233 243 239 235 236 230 196 189 185 178 172 206 202 215 225 230 244 227 152 226 201 181 207 176 135 133 181 206 201 195 191 187 171 181 188 178
192 198 203 213 208 206 202 202 201 201 202 203 207 212 217 219 218 215 208 213 213 207 206 212 213 209 212 217 218 220 227 231 232 235 240 243 239 237 235 241 244 240 233 225 197 196 179 185 193 200 204 213 219 223 224 195 216 213 198 204 201 183 187 156 185 197 198 197 185 134 81 94 66 78
177 189 207 217 222 216 218 204 202 204 206 207 209 210 211 213 211 212 213 213 216 212 199 200 209 212 217 220 218 220 225 227 228 227 227 233 234 235 236 235 236 236 238 227 215 210 203 208 203 205 207 218 238 248 172 164 149 78 154 225 209 193 189 163 162 160 204 199 153 132 127 127 155 189
183 203 204 203 213 219 221 218 212 205 209 209 215 220 221 220 219 218 214 213 209 207 216 221 214 211 215 217 220 215 223 226 228 227 222 223 230 231 233 229 232 221 222 226 226 225 220 220 219 213 191 74 76 88 76 117 197 196 169 199 54 84 134 159 156 159 152 163 145 144 155 170 167 161
348 331 321 272 234 235 230 227 224 221 218 214 218 221 223 226 231 235 234 232 222 218 213 214 219 216 215 214 214 212 219 224 224 225 216 213 224 229 232 225 229 228 226 231 224 228 256 46 92 103 116 136 144 164 213 213 205 184 187 133 89 49 74 112 135 135 148 160 152 143 119 123 113 139
204 223 226 229 232 233 237 239 237 232 233 229 238 237 239 240 242 236 227 230 234 242 237 239 239 239 245 243 235 223 224 229 224 220 218 215 215 219 222 223 226 230 235 245 262 232 166 165 137 149 153 167 195 191 222 209 190 160 163 152 165 135 66 74 96 101 98 98 148 163 162 155 142 176
191 201 216 221 235 245 253 252 234 213 224 238 263 279 300 332 317 314 300 271 263 257 254 251 249 243 243 240 242 242 233 229 217 218 216 215 212 214 219 228 232 236 239 233 195 193 187 179 185 161 167 199 191 195 205 157 177 175 168 151 145 142 132 110 90 87 82 76 77 72 74 101 130 149
29 31 35 30 31 27 26 21 19 9 5 2 2 353 358 353 330 310 292 273 256 252 253 253 258 257 250 239 225 230 220 201 200 208 209 218 221 210 205 221 232 233 224 169 173 222 189 189 179 170 190 194 188 198 186 172 162 158 158 154 163 163 159 153 129 142 140 107 19 75 99 99 104 103